Location: Kerguer�zec
(48.4509°N, 4.7600°W)
Time: 08:50:02
(UTC+00:00)

STARLINK-52 - Pass Details

Date: 09 April 2020
Orbit: 393 x 394 km, 53.0° (Epoch: 02 June)

Event Time Altitude Azimuth Distance (km) Brightness Sun altitude
Rises 20:37:05 0° 243° (WSW) 2,288 7.2 -15.4°
Reaches altitude 10° 20:39:09 10° 244° (WSW) 1,435 6.2 -15.6°
Maximum altitude 20:42:21 88° 331° (NNW) 402 2.9 -16.1°
Enters shadow 20:44:04 26° 63° (ENE) 835 4.3 -16.3°
